AAL4L KDEN-KCLT

Flight info

Callsign AAL4L
Flight time N/A
Altitude 35000
Route EXTAN7 SHAYK SLN BUM J112 FAM BWG TAZZA FILPZ4
Aircraft A321/M-SDE3FGHIRWY/LB1

Departure

Time N/A
Airport Denver International Airport (KDEN)

Arrival

Time 2026-05-05 00:25
Airport Charlotte Douglas International Airport (KCLT)
Time Latitude Longitude Altitude Speed Heading
2026-05-04 23:53 35.83339 -84.37842 34957 ft 480 kts 84°
2026-05-04 23:53 35.83624 -84.33752 34961 ft 480 kts 84°
2026-05-04 23:53 35.84192 -84.25500 34966 ft 480 kts 84°
2026-05-04 23:54 35.84752 -84.17351 34966 ft 481 kts 84°
2026-05-04 23:54 35.85314 -84.09142 34971 ft 481 kts 84°
2026-05-04 23:55 35.85869 -84.00926 34973 ft 481 kts 84°
2026-05-04 23:56 35.86693 -83.88598 34972 ft 481 kts 84°
2026-05-04 23:56 35.87228 -83.80369 34968 ft 481 kts 84°
2026-05-04 23:57 35.87756 -83.72137 34976 ft 481 kts 84°
2026-05-04 23:57 35.88291 -83.63904 34960 ft 482 kts 84°
2026-05-04 23:58 35.88824 -83.55675 34951 ft 482 kts 85°
2026-05-04 23:58 35.89084 -83.47426 34958 ft 482 kts 95°
2026-05-04 23:59 35.87745 -83.39380 34970 ft 480 kts 107°
2026-05-04 23:59 35.86845 -83.35372 34766 ft 491 kts 107°
2026-05-04 23:59 35.85939 -83.31308 34369 ft 491 kts 107°
2026-05-04 23:59 35.85043 -83.27261 33699 ft 488 kts 107°
2026-05-05 00:00 35.84150 -83.23239 33075 ft 484 kts 107°
2026-05-05 00:00 35.83850 -83.21890 32877 ft 482 kts 107°
2026-05-05 00:00 35.82381 -83.15311 31934 ft 476 kts 107°
2026-05-05 00:00 35.81510 -83.11396 31393 ft 471 kts 107°
2026-05-05 00:01 35.80647 -83.07517 30854 ft 468 kts 107°
2026-05-05 00:01 35.79793 -83.03670 30317 ft 464 kts 106°
2026-05-05 00:01 35.78957 -82.99904 29768 ft 460 kts 106°
2026-05-05 00:01 35.78120 -82.96132 29241 ft 454 kts 106°
2026-05-05 00:02 35.77291 -82.92402 28719 ft 449 kts 106°
2026-05-05 00:02 35.76468 -82.88711 28226 ft 443 kts 106°
2026-05-05 00:02 35.75652 -82.85083 27734 ft 437 kts 107°
2026-05-05 00:02 35.74845 -82.81502 27254 ft 431 kts 106°
2026-05-05 00:03 35.74051 -82.77971 26770 ft 425 kts 106°
2026-05-05 00:03 35.73269 -82.74490 26334 ft 418 kts 106°
2026-05-05 00:03 35.72499 -82.71068 25893 ft 412 kts 106°
2026-05-05 00:03 35.71736 -82.67689 25467 ft 407 kts 107°
2026-05-05 00:04 35.70979 -82.64357 25053 ft 402 kts 107°
2026-05-05 00:04 35.70232 -82.61070 24640 ft 397 kts 107°
2026-05-05 00:04 35.69494 -82.57819 24225 ft 393 kts 107°
2026-05-05 00:04 35.68758 -82.54595 23816 ft 390 kts 107°
2026-05-05 00:05 35.68024 -82.51400 23365 ft 387 kts 107°
2026-05-05 00:05 35.67294 -82.48224 22908 ft 384 kts 107°
2026-05-05 00:05 35.66571 -82.45077 22492 ft 381 kts 107°
2026-05-05 00:05 35.65852 -82.41951 22063 ft 378 kts 107°
2026-05-05 00:06 35.65134 -82.38846 21664 ft 376 kts 106°
2026-05-05 00:06 35.64425 -82.35769 21236 ft 373 kts 106°
2026-05-05 00:06 35.63720 -82.32708 20818 ft 371 kts 106°
2026-05-05 00:06 35.63019 -82.29667 20395 ft 368 kts 106°
2026-05-05 00:07 35.62333 -82.26689 19977 ft 366 kts 106°
2026-05-05 00:07 35.61641 -82.23695 19561 ft 363 kts 106°
2026-05-05 00:07 35.60954 -82.20725 19153 ft 360 kts 106°
2026-05-05 00:07 35.60269 -82.17774 18737 ft 358 kts 106°
2026-05-05 00:08 35.59585 -82.14844 18331 ft 355 kts 106°
2026-05-05 00:08 35.58907 -82.11945 17890 ft 352 kts 106°
2026-05-05 00:08 35.58234 -82.09062 17485 ft 350 kts 106°
2026-05-05 00:08 35.57566 -82.06192 17077 ft 348 kts 105°
2026-05-05 00:09 35.56961 -82.03326 16680 ft 346 kts 104°
2026-05-05 00:09 35.56428 -82.00455 16299 ft 344 kts 102°
2026-05-05 00:09 35.55931 -81.97595 15906 ft 341 kts 102°
2026-05-05 00:09 35.55444 -81.94752 15524 ft 340 kts 102°
2026-05-05 00:10 35.54953 -81.91926 15258 ft 338 kts 103°
2026-05-05 00:10 35.54453 -81.89112 14864 ft 336 kts 103°
2026-05-05 00:10 35.53950 -81.86319 14457 ft 335 kts 104°
2026-05-05 00:10 35.53443 -81.83537 14040 ft 333 kts 103°
2026-05-05 00:11 35.52936 -81.80775 13639 ft 331 kts 103°
2026-05-05 00:11 35.52431 -81.78040 13526 ft 328 kts 104°
2026-05-05 00:11 35.51928 -81.75308 13387 ft 328 kts 104°
2026-05-05 00:11 35.51424 -81.72570 13024 ft 330 kts 104°
2026-05-05 00:12 35.50925 -81.69831 12583 ft 328 kts 104°
2026-05-05 00:12 35.50434 -81.67116 12166 ft 325 kts 104°
2026-05-05 00:12 35.49945 -81.64409 11742 ft 322 kts 104°
2026-05-05 00:12 35.49460 -81.61734 11336 ft 320 kts 104°
2026-05-05 00:13 35.49161 -81.59037 10934 ft 319 kts 92°
2026-05-05 00:13 35.49338 -81.56346 10736 ft 317 kts 83°
2026-05-05 00:13 35.49609 -81.53662 10518 ft 316 kts 84°
2026-05-05 00:13 35.49871 -81.50982 10309 ft 315 kts 84°
2026-05-05 00:14 35.50126 -81.48316 10096 ft 315 kts 84°
2026-05-05 00:14 35.50380 -81.45651 9827 ft 315 kts 84°
2026-05-05 00:14 35.50635 -81.42989 9403 ft 312 kts 84°
2026-05-05 00:14 35.50887 -81.40394 9033 ft 309 kts 84°
2026-05-05 00:15 35.51142 -81.37790 8651 ft 306 kts 84°
2026-05-05 00:15 35.51393 -81.35206 8282 ft 304 kts 84°
2026-05-05 00:15 35.51639 -81.32643 7914 ft 301 kts 84°
2026-05-05 00:15 35.51883 -81.30102 7549 ft 298 kts 84°
2026-05-05 00:16 35.52123 -81.27609 7373 ft 287 kts 84°
2026-05-05 00:16 35.52352 -81.25234 7270 ft 274 kts 84°
2026-05-05 00:16 35.52571 -81.22969 7157 ft 262 kts 84°
2026-05-05 00:16 35.52780 -81.20775 7046 ft 257 kts 84°
2026-05-05 00:17 35.52759 -81.18598 6948 ft 254 kts 101°
2026-05-05 00:17 35.52479 -81.16455 6859 ft 254 kts 101°
2026-05-05 00:17 35.52190 -81.14318 6769 ft 253 kts 101°
2026-05-05 00:17 35.51902 -81.12190 6681 ft 253 kts 101°
2026-05-05 00:18 35.51615 -81.10064 6580 ft 253 kts 101°
2026-05-05 00:18 35.51329 -81.07940 6330 ft 251 kts 101°
2026-05-05 00:18 35.51046 -81.05838 6071 ft 249 kts 101°
2026-05-05 00:18 35.50766 -81.03754 5828 ft 246 kts 102°
2026-05-05 00:19 35.50494 -81.01714 5600 ft 238 kts 102°
2026-05-05 00:19 35.50234 -80.99755 5430 ft 226 kts 102°
2026-05-05 00:19 35.49774 -80.98013 5292 ft 212 kts 124°
2026-05-05 00:19 35.48842 -80.96673 5177 ft 204 kts 146°
2026-05-05 00:20 35.47613 -80.95888 5079 ft 197 kts 167°
2026-05-05 00:20 35.46271 -80.95665 4958 ft 194 kts 179°
2026-05-05 00:20 35.44931 -80.95551 4834 ft 193 kts 179°
2026-05-05 00:20 35.43594 -80.95435 4755 ft 193 kts 179°
2026-05-05 00:21 35.42258 -80.95320 4559 ft 191 kts 178°
2026-05-05 00:21 35.41383 -80.95244 4397 ft 190 kts 179°
2026-05-05 00:21 35.40074 -80.95131 4156 ft 187 kts 179°
2026-05-05 00:21 35.38818 -80.95022 3924 ft 178 kts 179°
2026-05-05 00:22 35.37593 -80.94917 3698 ft 177 kts 179°
2026-05-05 00:22 35.36368 -80.94812 3462 ft 176 kts 179°
2026-05-05 00:22 35.35155 -80.94707 3236 ft 175 kts 179°
2026-05-05 00:22 35.33941 -80.94603 3005 ft 175 kts 178°
2026-05-05 00:23 35.32733 -80.94498 2777 ft 173 kts 179°
2026-05-05 00:23 35.31530 -80.94395 2551 ft 174 kts 178°
2026-05-05 00:23 35.30325 -80.94291 2326 ft 174 kts 179°
2026-05-05 00:23 35.29124 -80.94188 2094 ft 172 kts 179°
2026-05-05 00:24 35.27937 -80.94086 1874 ft 172 kts 178°
2026-05-05 00:24 35.26740 -80.93983 1636 ft 173 kts 177°
2026-05-05 00:24 35.25518 -80.93878 1406 ft 178 kts 176°
2026-05-05 00:24 35.24318 -80.93780 1135 ft 169 kts 178°
2026-05-05 00:25 35.23167 -80.93675 888 ft 164 kts 177°
2026-05-05 00:25 35.22059 -80.93581 748 ft 149 kts 176°
2026-05-05 00:25 35.21189 -80.93510 735 ft 87 kts 176°
2026-05-05 00:25 35.20944 -80.93543 734 ft 16 kts 229°
2026-05-05 00:26 35.20962 -80.93615 733 ft 6 kts 335°
2026-05-05 00:26 35.21002 -80.93625 733 ft 5 kts 353°
2026-05-05 00:26 35.21048 -80.93631 733 ft 11 kts 355°
2026-05-05 00:26 35.21152 -80.93641 733 ft 16 kts 355°
2026-05-05 00:27 35.21262 -80.93651 733 ft 15 kts 355°
2026-05-05 00:27 35.21363 -80.93660 733 ft 14 kts 356°
2026-05-05 00:27 35.21460 -80.93669 733 ft 14 kts 356°
2026-05-05 00:27 35.21551 -80.93679 733 ft 13 kts 345°
2026-05-05 00:28 35.21614 -80.93747 732 ft 12 kts 310°
2026-05-05 00:28 35.21666 -80.93823 733 ft 11 kts 309°
2026-05-05 00:28 35.21715 -80.93891 732 ft 11 kts 317°
2026-05-05 00:28 35.21768 -80.93969 732 ft 12 kts 281°
2026-05-05 00:29 35.21728 -80.94049 731 ft 11 kts 227°
2026-05-05 00:29 35.21675 -80.94120 732 ft 11 kts 227°
2026-05-05 00:29 35.21630 -80.94202 732 ft 13 kts 258°
2026-05-05 00:29 35.21635 -80.94309 732 ft 12 kts 276°
2026-05-05 00:30 35.21676 -80.94369 732 ft 9 kts 346°
2026-05-05 00:30 35.21732 -80.94380 732 ft 8 kts 354°
2026-05-05 00:30 35.21780 -80.94385 732 ft 6 kts 358°
2026-05-05 00:30 35.21818 -80.94377 732 ft 5 kts 28°
2026-05-05 00:31 35.21831 -80.94347 732 ft 3 kts 84°
2026-05-05 00:31 35.21830 -80.94322 732 ft 2 kts 93°
2026-05-05 00:31 35.21829 -80.94305 732 ft 2 kts 95°
2026-05-05 00:31 35.21828 -80.94296 732 ft 1 kts 96°
2026-05-05 00:32 35.21828 -80.94292 732 ft 0 kts 96°
2026-05-05 00:32 35.21828 -80.94291 732 ft 0 kts 96°